Time,TemperatureF,DewpointF,PressureIn,WindDirection,WindDirectionDegrees,WindSpeedMPH,WindSpeedGustMPH,Humidity,HourlyPrecipIn,Conditions,Clouds,dailyrainin,SoftwareType,DateUTC
2013-06-23 00:01:00,64.0,45.6,-100.00,North,-999,-999.0,-999.0,51,-99.99,,---,-99.99,VWS V14.01,2013-06-23 07:01:00,
2013-06-23 00:06:00,64.0,46.1,-100.00,North,-999,-999.0,-999.0,52,-99.99,,---,-99.99,VWS V14.01,2013-06-23 07:06:00,
2013-06-23 00:11:00,64.0,46.1,-100.00,North,-999,-999.0,-999.0,52,-99.99,,---,-99.99,VWS V14.01,2013-06-23 07:11:00,
2013-06-23 00:16:00,63.9,45.9,-100.00,North,-999,-999.0,-999.0,52,-99.99,,---,-99.99,VWS V14.01,2013-06-23 07:16:00,
2013-06-23 00:21:00,63.9,45.9,-100.00,North,-999,-999.0,-999.0,52,-99.99,,---,-99.99,VWS V14.01,2013-06-23 07:21:00,
2013-06-23 00:26:00,63.7,45.8,-100.00,North,-999,-999.0,-999.0,52,-99.99,,---,-99.99,VWS V14.01,2013-06-23 07:26:00,
2013-06-23 00:31:00,63.7,45.8,-100.00,North,-999,-999.0,-999.0,52,-99.99,,---,-99.99,VWS V14.01,2013-06-23 07:31:00,
2013-06-23 00:36:00,63.5,46.1,-100.00,North,-999,-999.0,-999.0,53,-99.99,,---,-99.99,VWS V14.01,2013-06-23 07:36:00,
2013-06-23 00:41:00,63.3,45.9,-100.00,North,-999,-999.0,-999.0,53,-99.99,,---,-99.99,VWS V14.01,2013-06-23 07:41:00,
2013-06-23 00:46:00,63.3,45.9,-100.00,North,-999,-999.0,-999.0,53,-99.99,,---,-99.99,VWS V14.01,2013-06-23 07:46:00,
2013-06-23 00:51:00,63.1,45.8,-100.00,North,-999,-999.0,-999.0,53,-99.99,,---,-99.99,VWS V14.01,2013-06-23 07:51:00,
2013-06-23 00:56:00,63.1,46.2,-100.00,North,-999,-999.0,-999.0,54,-99.99,,---,-99.99,VWS V14.01,2013-06-23 07:56:00,
2013-06-23 01:01:00,63.1,46.2,-100.00,North,-999,-999.0,-999.0,54,-99.99,,---,-99.99,VWS V14.01,2013-06-23 08:01:00,
2013-06-23 01:06:00,63.1,46.2,-100.00,North,-999,-999.0,-999.0,54,-99.99,,---,-99.99,VWS V14.01,2013-06-23 08:06:00,
2013-06-23 01:11:00,63.0,46.1,-100.00,North,-999,-999.0,-999.0,54,-99.99,,---,-99.99,VWS V14.01,2013-06-23 08:11:00,
2013-06-23 01:16:00,63.0,46.6,-100.00,North,-999,-999.0,-999.0,55,-99.99,,---,-99.99,VWS V14.01,2013-06-23 08:16:00,
2013-06-23 01:21:00,62.8,46.4,-100.00,North,-999,-999.0,-999.0,55,-99.99,,---,-99.99,VWS V14.01,2013-06-23 08:21:00,
2013-06-23 01:26:00,62.8,46.4,-100.00,North,-999,-999.0,-999.0,55,-99.99,,---,-99.99,VWS V14.01,2013-06-23 08:26:00,
2013-06-23 01:31:00,62.8,46.4,-100.00,North,-999,-999.0,-999.0,55,-99.99,,---,-99.99,VWS V14.01,2013-06-23 08:31:00,
2013-06-23 01:36:00,62.8,46.4,-100.00,North,-999,-999.0,-999.0,55,-99.99,,---,-99.99,VWS V14.01,2013-06-23 08:36:00,
2013-06-23 01:41:00,62.6,46.7,-100.00,North,-999,-999.0,-999.0,56,-99.99,,---,-99.99,VWS V14.01,2013-06-23 08:41:00,
2013-06-23 01:46:00,62.6,46.7,-100.00,North,-999,-999.0,-999.0,56,-99.99,,---,-99.99,VWS V14.01,2013-06-23 08:46:00,
2013-06-23 01:51:00,62.4,46.5,-100.00,North,-999,-999.0,-999.0,56,-99.99,,---,-99.99,VWS V14.01,2013-06-23 08:51:00,
2013-06-23 01:56:00,62.2,46.8,-100.00,North,-999,-999.0,-999.0,57,-99.99,,---,-99.99,VWS V14.01,2013-06-23 08:56:00,
2013-06-23 02:01:00,62.1,47.1,-100.00,North,-999,-999.0,-999.0,58,-99.99,,---,-99.99,VWS V14.01,2013-06-23 09:01:00,
2013-06-23 02:06:00,61.9,47.0,-100.00,North,-999,-999.0,-999.0,58,-99.99,,---,-99.99,VWS V14.01,2013-06-23 09:06:00,
2013-06-23 02:11:00,61.7,46.8,-100.00,North,-999,-999.0,-999.0,58,-99.99,,---,-99.99,VWS V14.01,2013-06-23 09:11:00,
2013-06-23 02:16:00,61.5,47.1,-100.00,North,-999,-999.0,-999.0,59,-99.99,,---,-99.99,VWS V14.01,2013-06-23 09:16:00,
2013-06-23 02:21:00,61.5,47.1,-100.00,North,-999,-999.0,-999.0,59,-99.99,,---,-99.99,VWS V14.01,2013-06-23 09:21:00,
2013-06-23 02:26:00,61.5,47.1,-100.00,North,-999,-999.0,-999.0,59,-99.99,,---,-99.99,VWS V14.01,2013-06-23 09:26:00,
2013-06-23 02:31:00,61.3,47.3,-100.00,North,-999,-999.0,-999.0,60,-99.99,,---,-99.99,VWS V14.01,2013-06-23 09:31:00,
2013-06-23 02:36:00,61.3,47.3,-100.00,North,-999,-999.0,-999.0,60,-99.99,,---,-99.99,VWS V14.01,2013-06-23 09:36:00,
2013-06-23 02:41:00,61.3,47.3,-100.00,North,-999,-999.0,-999.0,60,-99.99,,---,-99.99,VWS V14.01,2013-06-23 09:41:00,
2013-06-23 02:46:00,61.3,47.3,-100.00,North,-999,-999.0,-999.0,60,-99.99,,---,-99.99,VWS V14.01,2013-06-23 09:46:00,
2013-06-23 02:51:00,61.3,47.3,-100.00,North,-999,-999.0,-999.0,60,-99.99,,---,-99.99,VWS V14.01,2013-06-23 09:51:00,
2013-06-23 02:56:00,61.3,47.3,-100.00,North,-999,-999.0,-999.0,60,-99.99,,---,-99.99,VWS V14.01,2013-06-23 09:56:00,
2013-06-23 03:01:00,61.5,48.0,-100.00,North,-999,-999.0,-999.0,61,-99.99,,---,-99.99,VWS V14.01,2013-06-23 10:01:00,
2013-06-23 03:06:00,61.5,48.0,-100.00,North,-999,-999.0,-999.0,61,-99.99,,---,-99.99,VWS V14.01,2013-06-23 10:06:00,
2013-06-23 03:11:00,61.7,47.7,-100.00,North,-999,-999.0,-999.0,60,-99.99,,---,-99.99,VWS V14.01,2013-06-23 10:11:00,
2013-06-23 03:16:00,61.7,47.7,-100.00,North,-999,-999.0,-999.0,60,-99.99,,---,-99.99,VWS V14.01,2013-06-23 10:16:00,
2013-06-23 03:21:00,61.7,47.7,-100.00,North,-999,-999.0,-999.0,60,-99.99,,---,-99.99,VWS V14.01,2013-06-23 10:21:00,
2013-06-23 03:26:00,61.7,48.1,-100.00,North,-999,-999.0,-999.0,61,-99.99,,---,-99.99,VWS V14.01,2013-06-23 10:26:00,
2013-06-23 03:31:00,61.5,48.0,-100.00,North,-999,-999.0,-999.0,61,-99.99,,---,-99.99,VWS V14.01,2013-06-23 10:31:00,
2013-06-23 03:36:00,61.3,47.8,-100.00,North,-999,-999.0,-999.0,61,-99.99,,---,-99.99,VWS V14.01,2013-06-23 10:36:00,
2013-06-23 03:41:00,61.2,47.6,-100.00,North,-999,-999.0,-999.0,61,-99.99,,---,-99.99,VWS V14.01,2013-06-23 10:41:00,
2013-06-23 03:46:00,61.0,47.5,-100.00,North,-999,-999.0,-999.0,61,-99.99,,---,-99.99,VWS V14.01,2013-06-23 10:46:00,
2013-06-23 03:51:00,60.8,47.7,-100.00,North,-999,-999.0,-999.0,62,-99.99,,---,-99.99,VWS V14.01,2013-06-23 10:51:00,
2013-06-23 03:56:00,61.0,48.3,-100.00,North,-999,-999.0,-999.0,63,-99.99,,---,-99.99,VWS V14.01,2013-06-23 10:56:00,
2013-06-23 04:01:00,60.8,48.1,-100.00,North,-999,-999.0,-999.0,63,-99.99,,---,-99.99,VWS V14.01,2013-06-23 11:01:00,
2013-06-23 04:06:00,60.8,48.1,-100.00,North,-999,-999.0,-999.0,63,-99.99,,---,-99.99,VWS V14.01,2013-06-23 11:06:00,
2013-06-23 04:11:00,61.0,48.3,-100.00,North,-999,-999.0,-999.0,63,-99.99,,---,-99.99,VWS V14.01,2013-06-23 11:11:00,
2013-06-23 04:16:00,61.0,48.7,-100.00,North,-999,-999.0,-999.0,64,-99.99,,---,-99.99,VWS V14.01,2013-06-23 11:16:00,
2013-06-23 04:21:00,61.0,48.3,-100.00,North,-999,-999.0,-999.0,63,-99.99,,---,-99.99,VWS V14.01,2013-06-23 11:21:00,
2013-06-23 04:27:00,61.0,48.7,-100.00,North,-999,-999.0,-999.0,64,-99.99,,---,-99.99,VWS V14.01,2013-06-23 11:27:00,
2013-06-23 04:32:00,61.0,48.7,-100.00,North,-999,-999.0,-999.0,64,-99.99,,---,-99.99,VWS V14.01,2013-06-23 11:32:00,
2013-06-23 04:37:00,61.0,48.7,-100.00,North,-999,-999.0,-999.0,64,-99.99,,---,-99.99,VWS V14.01,2013-06-23 11:37:00,
2013-06-23 04:42:00,61.0,48.7,-100.00,North,-999,-999.0,-999.0,64,-99.99,,---,-99.99,VWS V14.01,2013-06-23 11:42:00,
2013-06-23 04:47:00,61.0,48.7,-100.00,North,-999,-999.0,-999.0,64,-99.99,,---,-99.99,VWS V14.01,2013-06-23 11:47:00,
2013-06-23 04:52:00,61.0,49.2,-100.00,North,-999,-999.0,-999.0,65,-99.99,,---,-99.99,VWS V14.01,2013-06-23 11:52:00,
2013-06-23 04:57:00,60.6,48.8,-100.00,North,-999,-999.0,-999.0,65,-99.99,,---,-99.99,VWS V14.01,2013-06-23 11:57:00,
2013-06-23 05:02:00,60.8,49.0,-100.00,North,-999,-999.0,-999.0,65,-99.99,,---,-99.99,VWS V14.01,2013-06-23 12:02:00,
2013-06-23 05:07:00,60.6,49.2,-100.00,North,-999,-999.0,-999.0,66,-99.99,,---,-99.99,VWS V14.01,2013-06-23 12:07:00,
2013-06-23 05:12:00,60.8,49.0,-100.00,North,-999,-999.0,-999.0,65,-99.99,,---,-99.99,VWS V14.01,2013-06-23 12:12:00,
2013-06-23 05:17:00,60.8,49.0,-100.00,North,-999,-999.0,-999.0,65,-99.99,,---,-99.99,VWS V14.01,2013-06-23 12:17:00,
2013-06-23 05:22:00,60.8,49.4,-100.00,North,-999,-999.0,-999.0,66,-99.99,,---,-99.99,VWS V14.01,2013-06-23 12:22:00,
2013-06-23 05:27:00,60.8,49.4,-100.00,North,-999,-999.0,-999.0,66,-99.99,,---,-99.99,VWS V14.01,2013-06-23 12:27:00,
2013-06-23 05:32:00,60.8,49.8,-100.00,North,-999,-999.0,-999.0,67,-99.99,,---,-99.99,VWS V14.01,2013-06-23 12:32:00,
2013-06-23 05:37:00,60.8,49.8,-100.00,North,-999,-999.0,-999.0,67,-99.99,,---,-99.99,VWS V14.01,2013-06-23 12:37:00,
2013-06-23 05:42:00,60.6,49.6,-100.00,North,-999,-999.0,-999.0,67,-99.99,,---,-99.99,VWS V14.01,2013-06-23 12:42:00,
2013-06-23 05:47:00,60.8,49.8,-100.00,North,-999,-999.0,-999.0,67,-99.99,,---,-99.99,VWS V14.01,2013-06-23 12:47:00,
2013-06-23 05:52:00,60.6,50.0,-100.00,North,-999,-999.0,-999.0,68,-99.99,,---,-99.99,VWS V14.01,2013-06-23 12:52:00,
2013-06-23 05:57:00,60.6,50.0,-100.00,North,-999,-999.0,-999.0,68,-99.99,,---,-99.99,VWS V14.01,2013-06-23 12:57:00,
2013-06-23 06:02:00,60.8,50.2,-100.00,North,-999,-999.0,-999.0,68,-99.99,,---,-99.99,VWS V14.01,2013-06-23 13:02:00,
2013-06-23 06:07:00,60.6,50.0,-100.00,North,-999,-999.0,-999.0,68,-99.99,,---,-99.99,VWS V14.01,2013-06-23 13:07:00,
2013-06-23 06:12:00,60.4,50.2,-100.00,North,-999,-999.0,-999.0,69,-99.99,,---,-99.99,VWS V14.01,2013-06-23 13:12:00,
2013-06-23 06:17:00,60.4,50.2,-100.00,North,-999,-999.0,-999.0,69,-99.99,,---,-99.99,VWS V14.01,2013-06-23 13:17:00,
2013-06-23 06:22:00,60.4,50.2,-100.00,North,-999,-999.0,-999.0,69,-99.99,,---,-99.99,VWS V14.01,2013-06-23 13:22:00,
2013-06-23 06:27:00,60.4,50.2,-100.00,North,-999,-999.0,-999.0,69,-99.99,,---,-99.99,VWS V14.01,2013-06-23 13:27:00,
2013-06-23 06:32:00,60.4,50.2,-100.00,North,-999,-999.0,-999.0,69,-99.99,,---,-99.99,VWS V14.01,2013-06-23 13:32:00,
2013-06-23 06:37:00,60.4,50.2,-100.00,North,-999,-999.0,-999.0,69,-99.99,,---,-99.99,VWS V14.01,2013-06-23 13:37:00,
2013-06-23 06:42:00,60.4,50.2,-100.00,North,-999,-999.0,-999.0,69,-99.99,,---,-99.99,VWS V14.01,2013-06-23 13:42:00,
2013-06-23 06:47:00,60.4,50.6,-100.00,North,-999,-999.0,-999.0,70,-99.99,,---,-99.99,VWS V14.01,2013-06-23 13:47:00,
2013-06-23 06:52:00,60.4,50.6,-100.00,North,-999,-999.0,-999.0,70,-99.99,,---,-99.99,VWS V14.01,2013-06-23 13:52:00,
2013-06-23 06:57:00,60.4,50.6,-100.00,North,-999,-999.0,-999.0,70,-99.99,,---,-99.99,VWS V14.01,2013-06-23 13:57:00,
2013-06-23 07:02:00,60.6,50.8,-100.00,North,-999,-999.0,-999.0,70,-99.99,,---,-99.99,VWS V14.01,2013-06-23 14:02:00,
2013-06-23 07:07:00,60.6,50.8,-100.00,North,-999,-999.0,-999.0,70,-99.99,,---,-99.99,VWS V14.01,2013-06-23 14:07:00,
2013-06-23 07:12:00,60.6,50.8,-100.00,North,-999,-999.0,-999.0,70,-99.99,,---,-99.99,VWS V14.01,2013-06-23 14:12:00,
2013-06-23 07:17:00,60.6,50.8,-100.00,North,-999,-999.0,-999.0,70,-99.99,,---,-99.99,VWS V14.01,2013-06-23 14:17:00,
2013-06-23 07:22:00,60.8,51.0,-100.00,North,-999,-999.0,-999.0,70,-99.99,,---,-99.99,VWS V14.01,2013-06-23 14:22:00,
2013-06-23 07:27:00,61.0,51.1,-100.00,North,-999,-999.0,-999.0,70,-99.99,,---,-99.99,VWS V14.01,2013-06-23 14:27:00,
2013-06-23 07:32:00,61.0,51.1,-100.00,North,-999,-999.0,-999.0,70,-99.99,,---,-99.99,VWS V14.01,2013-06-23 14:32:00,
2013-06-23 07:37:00,61.0,51.1,-100.00,North,-999,-999.0,-999.0,70,-99.99,,---,-99.99,VWS V14.01,2013-06-23 14:37:00,
2013-06-23 07:42:00,61.0,51.1,-100.00,North,-999,-999.0,-999.0,70,-99.99,,---,-99.99,VWS V14.01,2013-06-23 14:42:00,
2013-06-23 07:47:00,61.0,51.1,-100.00,North,-999,-999.0,-999.0,70,-99.99,,---,-99.99,VWS V14.01,2013-06-23 14:47:00,
2013-06-23 07:52:00,61.2,51.7,-100.00,North,-999,-999.0,-999.0,71,-99.99,,---,-99.99,VWS V14.01,2013-06-23 14:52:00,
2013-06-23 07:57:00,61.2,51.3,-100.00,North,-999,-999.0,-999.0,70,-99.99,,---,-99.99,VWS V14.01,2013-06-23 14:57:00,
2013-06-23 08:03:00,61.3,51.5,-100.00,North,-999,-999.0,-999.0,70,-99.99,,---,-99.99,VWS V14.01,2013-06-23 15:03:00,
2013-06-23 08:08:00,61.3,51.5,-100.00,North,-999,-999.0,-999.0,70,-99.99,,---,-99.99,VWS V14.01,2013-06-23 15:08:00,
2013-06-23 08:14:00,61.5,52.0,-100.00,North,-999,-999.0,-999.0,71,-99.99,,---,-99.99,VWS V14.01,2013-06-23 15:14:00,
2013-06-23 08:19:00,61.7,51.8,-100.00,North,-999,-999.0,-999.0,70,-99.99,,---,-99.99,VWS V14.01,2013-06-23 15:19:00,
2013-06-23 08:24:00,61.7,51.8,-100.00,North,-999,-999.0,-999.0,70,-99.99,,---,-99.99,VWS V14.01,2013-06-23 15:24:00,
2013-06-23 08:29:00,61.9,52.0,-100.00,North,-999,-999.0,-999.0,70,-99.99,,---,-99.99,VWS V14.01,2013-06-23 15:29:00,
2013-06-23 08:34:00,61.9,52.0,-100.00,North,-999,-999.0,-999.0,70,-99.99,,---,-99.99,VWS V14.01,2013-06-23 15:34:00,
2013-06-23 08:40:00,62.1,52.2,-100.00,North,-999,-999.0,-999.0,70,-99.99,,---,-99.99,VWS V14.01,2013-06-23 15:40:00,
2013-06-23 08:45:00,62.2,52.3,-100.00,North,-999,-999.0,-999.0,70,-99.99,,---,-99.99,VWS V14.01,2013-06-23 15:45:00,
2013-06-23 08:51:00,62.2,52.3,-100.00,North,-999,-999.0,-999.0,70,-99.99,,---,-99.99,VWS V14.01,2013-06-23 15:51:00,
2013-06-23 08:56:00,62.4,52.5,-100.00,North,-999,-999.0,-999.0,70,-99.99,,---,-99.99,VWS V14.01,2013-06-23 15:56:00,
2013-06-23 09:03:00,62.6,52.7,-100.00,North,-999,-999.0,-999.0,70,-99.99,,---,-99.99,VWS V14.01,2013-06-23 16:03:00,
2013-06-23 09:11:00,63.0,52.6,-100.00,North,-999,-999.0,-999.0,69,-99.99,,---,-99.99,VWS V14.01,2013-06-23 16:11:00,
2013-06-23 09:16:00,63.0,53.0,-100.00,North,-999,-999.0,-999.0,70,-99.99,,---,-99.99,VWS V14.01,2013-06-23 16:16:00,
2013-06-23 09:21:00,63.0,53.0,-100.00,North,-999,-999.0,-999.0,70,-99.99,,---,-99.99,VWS V14.01,2013-06-23 16:21:00,
2013-06-23 09:26:00,63.0,53.0,-100.00,North,-999,-999.0,-999.0,70,-99.99,,---,-99.99,VWS V14.01,2013-06-23 16:26:00,
2013-06-23 09:31:00,63.0,53.0,-100.00,North,-999,-999.0,-999.0,70,-99.99,,---,-99.99,VWS V14.01,2013-06-23 16:31:00,
2013-06-23 09:36:00,63.0,53.0,-100.00,North,-999,-999.0,-999.0,70,-99.99,,---,-99.99,VWS V14.01,2013-06-23 16:36:00,
2013-06-23 09:41:00,62.8,52.9,-100.00,North,-999,-999.0,-999.0,70,-99.99,,---,-99.99,VWS V14.01,2013-06-23 16:41:00,
2013-06-23 09:46:00,62.8,52.9,-100.00,North,-999,-999.0,-999.0,70,-99.99,,---,-99.99,VWS V14.01,2013-06-23 16:46:00,
2013-06-23 09:51:00,62.8,53.2,-100.00,North,-999,-999.0,-999.0,71,-99.99,,---,-99.99,VWS V14.01,2013-06-23 16:51:00,
2013-06-23 09:56:00,62.6,53.1,-100.00,North,-999,-999.0,-999.0,71,-99.99,,---,-99.99,VWS V14.01,2013-06-23 16:56:00,
2013-06-23 09:58:00,62.6,53.1,-100.00,North,-999,-999.0,-999.0,71,-99.99,,---,-99.99,VWS V14.01,2013-06-23 16:58:00,
2013-06-23 10:00:00,62.6,52.7,-100.00,North,-999,-999.0,-999.0,70,-99.99,,---,-99.99,VWS V14.01,2013-06-23 17:00:00,
2013-06-23 10:01:00,62.8,52.9,-100.00,North,-999,-999.0,-999.0,70,-99.99,,---,-99.99,VWS V14.01,2013-06-23 17:01:00,
2013-06-23 10:05:00,62.8,53.2,-100.00,North,-999,-999.0,-999.0,71,-99.99,,---,-99.99,VWS V14.01,2013-06-23 17:05:00,
2013-06-23 10:11:00,63.0,53.4,-100.00,North,-999,-999.0,-999.0,71,-99.99,,---,-99.99,VWS V14.01,2013-06-23 17:11:00,
2013-06-23 10:15:00,63.0,53.4,-100.00,North,-999,-999.0,-999.0,71,-99.99,,---,-99.99,VWS V14.01,2013-06-23 17:15:00,
2013-06-23 10:21:00,63.1,53.2,-100.00,North,-999,-999.0,-999.0,70,-99.99,,---,-99.99,VWS V14.01,2013-06-23 17:21:00,
2013-06-23 10:26:00,63.1,53.2,-100.00,North,-999,-999.0,-999.0,70,-99.99,,---,-99.99,VWS V14.01,2013-06-23 17:26:00,
2013-06-23 10:31:00,63.1,53.2,-100.00,North,-999,-999.0,-999.0,70,-99.99,,---,-99.99,VWS V14.01,2013-06-23 17:31:00,
2013-06-23 10:36:00,63.1,53.2,-100.00,North,-999,-999.0,-999.0,70,-99.99,,---,-99.99,VWS V14.01,2013-06-23 17:36:00,
2013-06-23 10:41:00,63.1,53.2,-100.00,North,-999,-999.0,-999.0,70,-99.99,,---,-99.99,VWS V14.01,2013-06-23 17:41:00,
2013-06-23 10:46:00,63.3,53.8,-100.00,North,-999,-999.0,-999.0,71,-99.99,,---,-99.99,VWS V14.01,2013-06-23 17:46:00,
2013-06-23 10:51:00,63.9,53.9,-100.00,North,-999,-999.0,-999.0,70,-99.99,,---,-99.99,VWS V14.01,2013-06-23 17:51:00,
2013-06-23 10:56:00,64.6,54.6,-100.00,North,-999,-999.0,-999.0,70,-99.99,,---,-99.99,VWS V14.01,2013-06-23 17:56:00,
2013-06-23 11:01:00,65.3,55.3,-100.00,North,-999,-999.0,-999.0,70,-99.99,,---,-99.99,VWS V14.01,2013-06-23 18:01:00,
2013-06-23 11:06:00,65.8,55.4,-100.00,North,-999,-999.0,-999.0,69,-99.99,,---,-99.99,VWS V14.01,2013-06-23 18:06:00,
2013-06-23 11:11:00,66.0,55.6,-100.00,North,-999,-999.0,-999.0,69,-99.99,,---,-99.99,VWS V14.01,2013-06-23 18:11:00,
2013-06-23 11:16:00,66.2,55.3,-100.00,North,-999,-999.0,-999.0,68,-99.99,,---,-99.99,VWS V14.01,2013-06-23 18:16:00,
2013-06-23 11:21:00,66.2,55.3,-100.00,North,-999,-999.0,-999.0,68,-99.99,,---,-99.99,VWS V14.01,2013-06-23 18:21:00,
2013-06-23 11:26:00,66.4,55.5,-100.00,North,-999,-999.0,-999.0,68,-99.99,,---,-99.99,VWS V14.01,2013-06-23 18:26:00,
2013-06-23 11:31:00,66.4,55.5,-100.00,North,-999,-999.0,-999.0,68,-99.99,,---,-99.99,VWS V14.01,2013-06-23 18:31:00,
2013-06-23 11:36:00,66.2,54.9,-100.00,North,-999,-999.0,-999.0,67,-99.99,,---,-99.99,VWS V14.01,2013-06-23 18:36:00,
2013-06-23 11:42:00,66.4,55.1,-100.00,North,-999,-999.0,-999.0,67,-99.99,,---,-99.99,VWS V14.01,2013-06-23 18:42:00,
2013-06-23 11:47:00,66.6,55.3,-100.00,North,-999,-999.0,-999.0,67,-99.99,,---,-99.99,VWS V14.01,2013-06-23 18:47:00,
2013-06-23 11:52:00,66.6,55.3,-100.00,North,-999,-999.0,-999.0,67,-99.99,,---,-99.99,VWS V14.01,2013-06-23 18:52:00,
2013-06-23 11:57:00,66.6,55.3,-100.00,North,-999,-999.0,-999.0,67,-99.99,,---,-99.99,VWS V14.01,2013-06-23 18:57:00,
2013-06-23 12:02:00,66.7,55.5,-100.00,North,-999,-999.0,-999.0,67,-99.99,,---,-99.99,VWS V14.01,2013-06-23 19:02:00,
2013-06-23 12:07:00,66.7,55.5,-100.00,North,-999,-999.0,-999.0,67,-99.99,,---,-99.99,VWS V14.01,2013-06-23 19:07:00,
2013-06-23 12:12:00,66.7,55.5,-100.00,North,-999,-999.0,-999.0,67,-99.99,,---,-99.99,VWS V14.01,2013-06-23 19:12:00,
2013-06-23 12:17:00,66.7,55.5,-100.00,North,-999,-999.0,-999.0,67,-99.99,,---,-99.99,VWS V14.01,2013-06-23 19:17:00,
2013-06-23 12:22:00,66.7,55.5,-100.00,North,-999,-999.0,-999.0,67,-99.99,,---,-99.99,VWS V14.01,2013-06-23 19:22:00,
2013-06-23 12:27:00,66.7,55.5,-100.00,North,-999,-999.0,-999.0,67,-99.99,,---,-99.99,VWS V14.01,2013-06-23 19:27:00,
2013-06-23 12:32:00,66.7,55.5,-100.00,North,-999,-999.0,-999.0,67,-99.99,,---,-99.99,VWS V14.01,2013-06-23 19:32:00,
2013-06-23 12:37:00,66.7,55.5,-100.00,North,-999,-999.0,-999.0,67,-99.99,,---,-99.99,VWS V14.01,2013-06-23 19:37:00,
2013-06-23 12:42:00,66.7,55.5,-100.00,North,-999,-999.0,-999.0,67,-99.99,,---,-99.99,VWS V14.01,2013-06-23 19:42:00,
2013-06-23 12:47:00,66.7,55.5,-100.00,North,-999,-999.0,-999.0,67,-99.99,,---,-99.99,VWS V14.01,2013-06-23 19:47:00,
2013-06-23 12:52:00,66.7,55.5,-100.00,North,-999,-999.0,-999.0,67,-99.99,,---,-99.99,VWS V14.01,2013-06-23 19:52:00,
2013-06-23 12:57:00,66.9,55.6,-100.00,North,-999,-999.0,-999.0,67,-99.99,,---,-99.99,VWS V14.01,2013-06-23 19:57:00,
2013-06-23 13:02:00,67.1,55.8,-100.00,North,-999,-999.0,-999.0,67,-99.99,,---,-99.99,VWS V14.01,2013-06-23 20:02:00,
2013-06-23 13:07:00,67.1,55.8,-100.00,North,-999,-999.0,-999.0,67,-99.99,,---,-99.99,VWS V14.01,2013-06-23 20:07:00,
2013-06-23 13:12:00,67.3,56.0,-100.00,North,-999,-999.0,-999.0,67,-99.99,,---,-99.99,VWS V14.01,2013-06-23 20:12:00,
2013-06-23 13:17:00,67.3,56.0,-100.00,North,-999,-999.0,-999.0,67,-99.99,,---,-99.99,VWS V14.01,2013-06-23 20:17:00,
2013-06-23 13:22:00,67.3,56.0,-100.00,North,-999,-999.0,-999.0,67,-99.99,,---,-99.99,VWS V14.01,2013-06-23 20:22:00,
2013-06-23 13:27:00,67.3,56.0,-100.00,North,-999,-999.0,-999.0,67,-99.99,,---,-99.99,VWS V14.01,2013-06-23 20:27:00,
2013-06-23 13:32:00,67.5,56.1,-100.00,North,-999,-999.0,-999.0,67,-99.99,,---,-99.99,VWS V14.01,2013-06-23 20:32:00,
2013-06-23 13:37:00,67.6,55.9,-100.00,North,-999,-999.0,-999.0,66,-99.99,,---,-99.99,VWS V14.01,2013-06-23 20:37:00,
2013-06-23 13:42:00,67.6,55.9,-100.00,North,-999,-999.0,-999.0,66,-99.99,,---,-99.99,VWS V14.01,2013-06-23 20:42:00,
2013-06-23 13:47:00,67.6,55.9,-100.00,North,-999,-999.0,-999.0,66,-99.99,,---,-99.99,VWS V14.01,2013-06-23 20:47:00,
2013-06-23 13:52:00,67.6,55.9,-100.00,North,-999,-999.0,-999.0,66,-99.99,,---,-99.99,VWS V14.01,2013-06-23 20:52:00,
2013-06-23 13:57:00,67.8,56.1,-100.00,North,-999,-999.0,-999.0,66,-99.99,,---,-99.99,VWS V14.01,2013-06-23 20:57:00,
2013-06-23 14:02:00,68.2,56.4,-100.00,North,-999,-999.0,-999.0,66,-99.99,,---,-99.99,VWS V14.01,2013-06-23 21:02:00,
2013-06-23 14:07:00,68.4,56.6,-100.00,North,-999,-999.0,-999.0,66,-99.99,,---,-99.99,VWS V14.01,2013-06-23 21:07:00,
2013-06-23 14:12:00,68.7,56.5,-100.00,North,-999,-999.0,-999.0,65,-99.99,,---,-99.99,VWS V14.01,2013-06-23 21:12:00,
2013-06-23 14:17:00,68.7,56.5,-100.00,North,-999,-999.0,-999.0,65,-99.99,,---,-99.99,VWS V14.01,2013-06-23 21:17:00,
2013-06-23 14:22:00,69.1,56.8,-100.00,North,-999,-999.0,-999.0,65,-99.99,,---,-99.99,VWS V14.01,2013-06-23 21:22:00,
2013-06-23 14:27:00,69.4,57.2,-100.00,North,-999,-999.0,-999.0,65,-99.99,,---,-99.99,VWS V14.01,2013-06-23 21:27:00,
2013-06-23 14:32:00,70.0,57.3,-100.00,North,-999,-999.0,-999.0,64,-99.99,,---,-99.99,VWS V14.01,2013-06-23 21:32:00,
2013-06-23 14:37:00,70.3,57.6,-100.00,North,-999,-999.0,-999.0,64,-99.99,,---,-99.99,VWS V14.01,2013-06-23 21:37:00,
2013-06-23 14:42:00,70.9,58.1,-100.00,North,-999,-999.0,-999.0,64,-99.99,,---,-99.99,VWS V14.01,2013-06-23 21:42:00,
2013-06-23 14:47:00,71.2,58.0,-100.00,North,-999,-999.0,-999.0,63,-99.99,,---,-99.99,VWS V14.01,2013-06-23 21:47:00,
2013-06-23 14:52:00,71.4,58.2,-100.00,North,-999,-999.0,-999.0,63,-99.99,,---,-99.99,VWS V14.01,2013-06-23 21:52:00,
2013-06-23 14:57:00,71.2,58.0,-100.00,North,-999,-999.0,-999.0,63,-99.99,,---,-99.99,VWS V14.01,2013-06-23 21:57:00,
2013-06-23 15:02:00,71.1,57.8,-100.00,North,-999,-999.0,-999.0,63,-99.99,,---,-99.99,VWS V14.01,2013-06-23 22:02:00,
2013-06-23 15:20:00,70.5,57.3,-100.00,North,-999,-999.0,-999.0,63,-99.99,,---,-99.99,VWS V14.01,2013-06-23 22:20:00,
2013-06-23 15:25:00,70.5,57.3,-100.00,North,-999,-999.0,-999.0,63,-99.99,,---,-99.99,VWS V14.01,2013-06-23 22:25:00,
2013-06-23 15:30:00,70.3,57.2,-100.00,North,-999,-999.0,-999.0,63,-99.99,,---,-99.99,VWS V14.01,2013-06-23 22:30:00,
2013-06-23 15:35:00,70.3,57.2,-100.00,North,-999,-999.0,-999.0,63,-99.99,,---,-99.99,VWS V14.01,2013-06-23 22:35:00,
2013-06-23 15:40:00,70.3,57.2,-100.00,North,-999,-999.0,-999.0,63,-99.99,,---,-99.99,VWS V14.01,2013-06-23 22:40:00,
2013-06-23 15:45:00,70.5,57.3,-100.00,North,-999,-999.0,-999.0,63,-99.99,,---,-99.99,VWS V14.01,2013-06-23 22:45:00,
2013-06-23 15:50:00,70.5,57.3,-100.00,North,-999,-999.0,-999.0,63,-99.99,,---,-99.99,VWS V14.01,2013-06-23 22:50:00,
2013-06-23 15:55:00,70.3,57.2,-100.00,North,-999,-999.0,-999.0,63,-99.99,,---,-99.99,VWS V14.01,2013-06-23 22:55:00,
2013-06-23 16:00:00,70.2,57.0,-100.00,North,-999,-999.0,-999.0,63,-99.99,,---,-99.99,VWS V14.01,2013-06-23 23:00:00,
2013-06-23 16:05:00,70.2,57.0,-100.00,North,-999,-999.0,-999.0,63,-99.99,,---,-99.99,VWS V14.01,2013-06-23 23:05:00,
2013-06-23 16:10:00,70.2,57.0,-100.00,North,-999,-999.0,-999.0,63,-99.99,,---,-99.99,VWS V14.01,2013-06-23 23:10:00,
2013-06-23 16:15:00,70.0,56.8,-100.00,North,-999,-999.0,-999.0,63,-99.99,,---,-99.99,VWS V14.01,2013-06-23 23:15:00,
2013-06-23 16:20:00,70.0,56.8,-100.00,North,-999,-999.0,-999.0,63,-99.99,,---,-99.99,VWS V14.01,2013-06-23 23:20:00,
2013-06-23 16:26:00,70.2,57.0,-100.00,North,-999,-999.0,-999.0,63,-99.99,,---,-99.99,VWS V14.01,2013-06-23 23:26:00,
2013-06-23 16:31:00,70.2,57.4,-100.00,North,-999,-999.0,-999.0,64,-99.99,,---,-99.99,VWS V14.01,2013-06-23 23:31:00,
2013-06-23 16:36:00,70.2,57.0,-100.00,North,-999,-999.0,-999.0,63,-99.99,,---,-99.99,VWS V14.01,2013-06-23 23:36:00,
2013-06-23 16:41:00,70.3,57.6,-100.00,North,-999,-999.0,-999.0,64,-99.99,,---,-99.99,VWS V14.01,2013-06-23 23:41:00,
2013-06-23 16:46:00,70.5,57.8,-100.00,North,-999,-999.0,-999.0,64,-99.99,,---,-99.99,VWS V14.01,2013-06-23 23:46:00,
2013-06-23 16:51:00,70.5,57.8,-100.00,North,-999,-999.0,-999.0,64,-99.99,,---,-99.99,VWS V14.01,2013-06-23 23:51:00,
2013-06-23 16:56:00,70.7,57.9,-100.00,North,-999,-999.0,-999.0,64,-99.99,,---,-99.99,VWS V14.01,2013-06-23 23:56:00,
2013-06-23 17:01:00,70.7,57.5,-100.00,North,-999,-999.0,-999.0,63,-99.99,,---,-99.99,VWS V14.01,2013-06-24 00:01:00,
2013-06-23 17:06:00,70.7,57.5,-100.00,North,-999,-999.0,-999.0,63,-99.99,,---,-99.99,VWS V14.01,2013-06-24 00:06:00,
2013-06-23 17:11:00,70.7,57.5,-100.00,North,-999,-999.0,-999.0,63,-99.99,,---,-99.99,VWS V14.01,2013-06-24 00:11:00,
2013-06-23 17:17:00,70.5,57.3,-100.00,North,-999,-999.0,-999.0,63,-99.99,,---,-99.99,VWS V14.01,2013-06-24 00:17:00,
2013-06-23 17:22:00,70.5,57.3,-100.00,North,-999,-999.0,-999.0,63,-99.99,,---,-99.99,VWS V14.01,2013-06-24 00:22:00,
2013-06-23 17:27:00,70.3,57.2,-100.00,North,-999,-999.0,-999.0,63,-99.99,,---,-99.99,VWS V14.01,2013-06-24 00:27:00,
2013-06-23 17:32:00,70.2,57.0,-100.00,North,-999,-999.0,-999.0,63,-99.99,,---,-99.99,VWS V14.01,2013-06-24 00:32:00,
2013-06-23 17:38:00,70.2,57.4,-100.00,North,-999,-999.0,-999.0,64,-99.99,,---,-99.99,VWS V14.01,2013-06-24 00:38:00,
2013-06-23 17:44:00,70.0,57.3,-100.00,North,-999,-999.0,-999.0,64,-99.99,,---,-99.99,VWS V14.01,2013-06-24 00:44:00,
2013-06-23 17:49:00,69.8,57.1,-100.00,North,-999,-999.0,-999.0,64,-99.99,,---,-99.99,VWS V14.01,2013-06-24 00:49:00,
2013-06-23 17:54:00,69.6,57.3,-100.00,North,-999,-999.0,-999.0,65,-99.99,,---,-99.99,VWS V14.01,2013-06-24 00:54:00,
2013-06-23 17:59:00,69.4,57.2,-100.00,North,-999,-999.0,-999.0,65,-99.99,,---,-99.99,VWS V14.01,2013-06-24 00:59:00,
2013-06-23 18:05:00,69.3,57.0,-100.00,North,-999,-999.0,-999.0,65,-99.99,,---,-99.99,VWS V14.01,2013-06-24 01:05:00,
2013-06-23 18:10:00,69.3,57.0,-100.00,North,-999,-999.0,-999.0,65,-99.99,,---,-99.99,VWS V14.01,2013-06-24 01:10:00,
2013-06-23 18:15:00,69.1,56.8,-100.00,North,-999,-999.0,-999.0,65,-99.99,,---,-99.99,VWS V14.01,2013-06-24 01:15:00,
2013-06-23 18:20:00,69.1,56.8,-100.00,North,-999,-999.0,-999.0,65,-99.99,,---,-99.99,VWS V14.01,2013-06-24 01:20:00,
2013-06-23 18:25:00,68.9,57.1,-100.00,North,-999,-999.0,-999.0,66,-99.99,,---,-99.99,VWS V14.01,2013-06-24 01:25:00,
2013-06-23 18:30:00,69.1,57.3,-100.00,North,-999,-999.0,-999.0,66,-99.99,,---,-99.99,VWS V14.01,2013-06-24 01:30:00,
2013-06-23 18:35:00,69.1,57.3,-100.00,North,-999,-999.0,-999.0,66,-99.99,,---,-99.99,VWS V14.01,2013-06-24 01:35:00,
2013-06-23 18:40:00,69.1,57.3,-100.00,North,-999,-999.0,-999.0,66,-99.99,,---,-99.99,VWS V14.01,2013-06-24 01:40:00,
2013-06-23 18:45:00,69.1,57.3,-100.00,North,-999,-999.0,-999.0,66,-99.99,,---,-99.99,VWS V14.01,2013-06-24 01:45:00,
2013-06-23 18:50:00,69.1,57.3,-100.00,North,-999,-999.0,-999.0,66,-99.99,,---,-99.99,VWS V14.01,2013-06-24 01:50:00,
2013-06-23 18:55:00,68.9,57.1,-100.00,North,-999,-999.0,-999.0,66,-99.99,,---,-99.99,VWS V14.01,2013-06-24 01:55:00,
2013-06-23 19:00:00,68.9,57.1,-100.00,North,-999,-999.0,-999.0,66,-99.99,,---,-99.99,VWS V14.01,2013-06-24 02:00:00,
2013-06-23 19:05:00,68.9,57.1,-100.00,North,-999,-999.0,-999.0,66,-99.99,,---,-99.99,VWS V14.01,2013-06-24 02:05:00,
2013-06-23 19:10:00,68.7,56.9,-100.00,North,-999,-999.0,-999.0,66,-99.99,,---,-99.99,VWS V14.01,2013-06-24 02:10:00,
2013-06-23 19:15:00,68.5,56.7,-100.00,North,-999,-999.0,-999.0,66,-99.99,,---,-99.99,VWS V14.01,2013-06-24 02:15:00,
2013-06-23 19:20:00,68.4,56.6,-100.00,North,-999,-999.0,-999.0,66,-99.99,,---,-99.99,VWS V14.01,2013-06-24 02:20:00,
2013-06-23 19:25:00,68.2,56.4,-100.00,North,-999,-999.0,-999.0,66,-99.99,,---,-99.99,VWS V14.01,2013-06-24 02:25:00,
2013-06-23 19:30:00,68.2,56.4,-100.00,North,-999,-999.0,-999.0,66,-99.99,,---,-99.99,VWS V14.01,2013-06-24 02:30:00,
2013-06-23 19:35:00,68.0,56.2,-100.00,North,-999,-999.0,-999.0,66,-99.99,,---,-99.99,VWS V14.01,2013-06-24 02:35:00,
2013-06-23 19:40:00,68.0,56.2,-100.00,North,-999,-999.0,-999.0,66,-99.99,,---,-99.99,VWS V14.01,2013-06-24 02:40:00,
2013-06-23 19:45:00,67.8,56.5,-100.00,North,-999,-999.0,-999.0,67,-99.99,,---,-99.99,VWS V14.01,2013-06-24 02:45:00,
2013-06-23 19:50:00,67.6,56.3,-100.00,North,-999,-999.0,-999.0,67,-99.99,,---,-99.99,VWS V14.01,2013-06-24 02:50:00,
2013-06-23 19:55:00,67.6,56.3,-100.00,North,-999,-999.0,-999.0,67,-99.99,,---,-99.99,VWS V14.01,2013-06-24 02:55:00,
2013-06-23 20:00:00,67.5,56.1,-100.00,North,-999,-999.0,-999.0,67,-99.99,,---,-99.99,VWS V14.01,2013-06-24 03:00:00,
2013-06-23 20:05:00,67.5,56.1,-100.00,North,-999,-999.0,-999.0,67,-99.99,,---,-99.99,VWS V14.01,2013-06-24 03:05:00,
2013-06-23 20:10:00,67.3,56.0,-100.00,North,-999,-999.0,-999.0,67,-99.99,,---,-99.99,VWS V14.01,2013-06-24 03:10:00,
2013-06-23 20:15:00,67.3,56.0,-100.00,North,-999,-999.0,-999.0,67,-99.99,,---,-99.99,VWS V14.01,2013-06-24 03:15:00,
2013-06-23 20:20:00,67.1,55.8,-100.00,North,-999,-999.0,-999.0,67,-99.99,,---,-99.99,VWS V14.01,2013-06-24 03:20:00,
2013-06-23 20:25:00,67.1,55.8,-100.00,North,-999,-999.0,-999.0,67,-99.99,,---,-99.99,VWS V14.01,2013-06-24 03:25:00,
2013-06-23 20:30:00,66.9,55.6,-100.00,North,-999,-999.0,-999.0,67,-99.99,,---,-99.99,VWS V14.01,2013-06-24 03:30:00,
2013-06-23 20:35:00,66.9,56.0,-100.00,North,-999,-999.0,-999.0,68,-99.99,,---,-99.99,VWS V14.01,2013-06-24 03:35:00,
2013-06-23 20:40:00,66.7,55.8,-100.00,North,-999,-999.0,-999.0,68,-99.99,,---,-99.99,VWS V14.01,2013-06-24 03:40:00,
2013-06-23 20:45:00,66.7,55.8,-100.00,North,-999,-999.0,-999.0,68,-99.99,,---,-99.99,VWS V14.01,2013-06-24 03:45:00,
2013-06-23 20:50:00,66.6,55.7,-100.00,North,-999,-999.0,-999.0,68,-99.99,,---,-99.99,VWS V14.01,2013-06-24 03:50:00,
2013-06-23 20:55:00,66.6,55.7,-100.00,North,-999,-999.0,-999.0,68,-99.99,,---,-99.99,VWS V14.01,2013-06-24 03:55:00,
2013-06-23 21:00:00,66.6,55.7,-100.00,North,-999,-999.0,-999.0,68,-99.99,,---,-99.99,VWS V14.01,2013-06-24 04:00:00,
2013-06-23 21:13:00,66.4,55.5,-100.00,North,-999,-999.0,-999.0,68,-99.99,,---,-99.99,VWS V14.01,2013-06-24 04:13:00,
2013-06-23 21:16:00,66.4,55.5,-100.00,North,-999,-999.0,-999.0,68,-99.99,,---,-99.99,VWS V14.01,2013-06-24 04:16:00,
2013-06-23 21:17:00,66.4,55.5,-100.00,North,-999,-999.0,-999.0,68,-99.99,,---,-99.99,VWS V14.01,2013-06-24 04:17:00,
2013-06-23 21:23:00,66.4,55.5,-100.00,North,-999,-999.0,-999.0,68,-99.99,,---,-99.99,VWS V14.01,2013-06-24 04:23:00,
2013-06-23 21:28:00,66.2,55.3,-100.00,North,-999,-999.0,-999.0,68,-99.99,,---,-99.99,VWS V14.01,2013-06-24 04:28:00,
2013-06-23 21:33:00,66.2,55.3,-100.00,North,-999,-999.0,-999.0,68,-99.99,,---,-99.99,VWS V14.01,2013-06-24 04:33:00,
2013-06-23 21:38:00,66.2,55.3,-100.00,North,-999,-999.0,-999.0,68,-99.99,,---,-99.99,VWS V14.01,2013-06-24 04:38:00,
2013-06-23 21:43:00,66.2,55.3,-100.00,North,-999,-999.0,-999.0,68,-99.99,,---,-99.99,VWS V14.01,2013-06-24 04:43:00,
2013-06-23 21:48:00,66.0,55.6,-100.00,North,-999,-999.0,-999.0,69,-99.99,,---,-99.99,VWS V14.01,2013-06-24 04:48:00,
2013-06-23 21:53:00,66.0,55.6,-100.00,North,-999,-999.0,-999.0,69,-99.99,,---,-99.99,VWS V14.01,2013-06-24 04:53:00,
2013-06-23 21:58:00,66.0,55.6,-100.00,North,-999,-999.0,-999.0,69,-99.99,,---,-99.99,VWS V14.01,2013-06-24 04:58:00,
2013-06-23 22:03:00,66.0,55.6,-100.00,North,-999,-999.0,-999.0,69,-99.99,,---,-99.99,VWS V14.01,2013-06-24 05:03:00,
2013-06-23 22:08:00,66.0,55.6,-100.00,North,-999,-999.0,-999.0,69,-99.99,,---,-99.99,VWS V14.01,2013-06-24 05:08:00,
2013-06-23 22:13:00,66.0,55.6,-100.00,North,-999,-999.0,-999.0,69,-99.99,,---,-99.99,VWS V14.01,2013-06-24 05:13:00,
2013-06-23 22:18:00,66.0,55.6,-100.00,North,-999,-999.0,-999.0,69,-99.99,,---,-99.99,VWS V14.01,2013-06-24 05:18:00,
2013-06-23 22:23:00,66.0,55.6,-100.00,North,-999,-999.0,-999.0,69,-99.99,,---,-99.99,VWS V14.01,2013-06-24 05:23:00,
2013-06-23 22:28:00,66.0,56.0,-100.00,North,-999,-999.0,-999.0,70,-99.99,,---,-99.99,VWS V14.01,2013-06-24 05:28:00,
2013-06-23 22:34:00,65.8,55.8,-100.00,North,-999,-999.0,-999.0,70,-99.99,,---,-99.99,VWS V14.01,2013-06-24 05:34:00,
2013-06-23 22:39:00,65.8,55.8,-100.00,North,-999,-999.0,-999.0,70,-99.99,,---,-99.99,VWS V14.01,2013-06-24 05:39:00,
2013-06-23 22:44:00,65.8,55.8,-100.00,North,-999,-999.0,-999.0,70,-99.99,,---,-99.99,VWS V14.01,2013-06-24 05:44:00,
2013-06-23 22:49:00,65.7,55.6,-100.00,North,-999,-999.0,-999.0,70,-99.99,,---,-99.99,VWS V14.01,2013-06-24 05:49:00,
2013-06-23 22:54:00,65.7,55.6,-100.00,North,-999,-999.0,-999.0,70,-99.99,,---,-99.99,VWS V14.01,2013-06-24 05:54:00,
2013-06-23 22:59:00,65.7,55.6,-100.00,North,-999,-999.0,-999.0,70,-99.99,,---,-99.99,VWS V14.01,2013-06-24 05:59:00,
2013-06-23 23:04:00,65.7,55.6,-100.00,North,-999,-999.0,-999.0,70,-99.99,,---,-99.99,VWS V14.01,2013-06-24 06:04:00,
2013-06-23 23:09:00,65.5,55.5,-100.00,North,-999,-999.0,-999.0,70,-99.99,,---,-99.99,VWS V14.01,2013-06-24 06:09:00,
2013-06-23 23:15:00,65.5,55.5,-100.00,North,-999,-999.0,-999.0,70,-99.99,,---,-99.99,VWS V14.01,2013-06-24 06:15:00,
2013-06-23 23:20:00,65.5,55.5,-100.00,North,-999,-999.0,-999.0,70,-99.99,,---,-99.99,VWS V14.01,2013-06-24 06:20:00,
2013-06-23 23:25:00,65.3,55.3,-100.00,North,-999,-999.0,-999.0,70,-99.99,,---,-99.99,VWS V14.01,2013-06-24 06:25:00,
2013-06-23 23:30:00,65.3,55.7,-100.00,North,-999,-999.0,-999.0,71,-99.99,,---,-99.99,VWS V14.01,2013-06-24 06:30:00,
2013-06-23 23:36:00,65.1,55.5,-100.00,North,-999,-999.0,-999.0,71,-99.99,,---,-99.99,VWS V14.01,2013-06-24 06:36:00,
2013-06-23 23:41:00,65.1,55.5,-100.00,North,-999,-999.0,-999.0,71,-99.99,,---,-99.99,VWS V14.01,2013-06-24 06:41:00,
2013-06-23 23:46:00,64.9,55.3,-100.00,North,-999,-999.0,-999.0,71,-99.99,,---,-99.99,VWS V14.01,2013-06-24 06:46:00,
2013-06-23 23:51:00,64.8,55.2,-100.00,North,-999,-999.0,-999.0,71,-99.99,,---,-99.99,VWS V14.01,2013-06-24 06:51:00,
2013-06-23 23:56:00,64.8,55.2,-100.00,North,-999,-999.0,-999.0,71,-99.99,,---,-99.99,VWS V14.01,2013-06-24 06:56:00,